Location: Boiro
(42.6475°N, 8.8834°W)
Time: 03:25:20
(UTC+01:00)

Vanguard 2 - Pass Details

Date: 08 December 2021
Orbit: 553 x 2936 km, 32.9° (Epoch: 20 January)

Event Time Altitude Azimuth Distance (km) Brightness Sun altitude
Rises 16:08:03 0° 254° (WSW) 2,895 11.4 14.9°
Reaches altitude 10° 16:10:18 10° 242° (WSW) 2,131 11.3 14.6°
Maximum altitude 16:14:29 29° 182° (S) 1,525 10.1 14.1°
Drops below altitude 10° 16:20:24 10° 126° (SE) 3,072 10.6 13.4°
Sets 16:24:20 0° 116° (ESE) 4,462 11.3 12.9°
